Weather in Leninsky

Russia / Oryol Oblast     52°38′18″N   37°14′20″E
temp.,
°C
wind,
m/s
gust,
m/s
humid.,
%
clouds,
%
prec.,
mm/h
press.,
hPa
HPBL,
m
24 january, mon
mon2400:00−14nne3910099 0.0 1032116
03:00−12ne5139796 0.0 1032201
06:00−10ne6149485 0.0 1032301
09:00−9ne7159399 0.1 1033420
12:00−8ne6139399 0.0 1032437
15:00−8ne5119491 0.1 1032340
18:00−10nne5109581 0.0 1032230
21:00−13ne499777 0.1 1032156
25 january, tue
tue2500:00−14nne379980 0.0 1030106
03:00−18ne229956 0.0 103035
06:00−18ne229949 0.0 102834
09:00−21ne2210083 0.0 102827
12:00−14ene129673 0.0 102577
15:00−12ssw119610 0.0 102312
18:00−18w229959 0.0 10229
21:00−18wsw2210076 0.0 102121
26 january, wed
wed2600:00−20wsw2210090 0.0 102033
03:00−18sw2399100 0.0 101949
06:00−15sw2597100 0.0 101881
09:00−11sw3696100 0.1 1018161
12:00−8wsw3593100 0.3 1018260
15:00−8wsw3494100 0.4 1018291
18:00−11w229987 0.1 101925
21:00−13wnw229994 0.1 101917
27 january, thu
thu2700:00−15nw2210084 0.1 10209
03:00−15wnw229984 0.1 102016
06:00−18w22100100 0.1 102011
09:00−17ssw2210099 0.1 102017
12:00−11ssw3596100 0.1 1019154
15:00−10s3796100 0.1 1017237
18:00−12s389786 0.0 1017141
21:00−14s4109980 0.0 1016137
28 january, fri
fri2800:00−15s4129983 0.0 1015176
03:00−12s51395100 0.0 1013277
06:00−10sse6139590 0.1 1010316
09:00−9sse61495100 0.3 1009348
12:00−7s71495100 1.1 1006478
15:00−4s61296100 2.7 1004500
18:00−4s5119699 0.6 1003310
21:00−3ssw499899 0.9 1002242